Location: Newark
(45.2500°N, 7.5833°E)
Time: 02:13:41
(UTC+00:00)

Tiros 1 despin weight - Pass Details

Date: 30 January 2020
Orbit: 594 x 642 km, 48.2° (Epoch: 19 February)

Event Time Altitude Azimuth Distance (km) Brightness Sun altitude
Rises 09:18:31 0° 237° (WSW) 2,836 ? 19.0°
Reaches altitude 10° 09:20:48 10° 234° (SW) 1,942 ? 19.2°
Maximum altitude 09:25:12 65° 154° (SSE) 673 ? 19.7°
Drops below altitude 10° 09:29:42 10° 72° (ENE) 1,978 ? 20.1°
Sets 09:32:03 0° 70° (ENE) 2,894 ? 20.3°
